Alexandria, MN

4:19 AM CDT on April 24, 2018 (GMT -0500)
Chandler

Weather History for KAXN - February, 2013

Change the Weather History Date:

Monday, February 18, 2013

  Actual Average Record
Temperature  
Mean Temperature 14 °F -  
Max Temperature 30 °F 23 °F 51 °F (1981)
Min Temperature -2 °F 8 °F -20 °F (1956)
Degree Days  
Heating Degree Days 51    
Moisture  
Dew Point 8 °F    
Average Humidity 78    
Maximum Humidity 96    
Minimum Humidity 64    
Precipitation  
Precipitation 0.00 in - - ()
Sea Level Pressure  
Sea Level Pressure 29.71 in    
Wind  
Wind Speed 13 mph (NW)    
Max Wind Speed 28 mph    
Max Gust Speed 36 mph    
Visibility 8 miles    
Events Snow    
Averages and records for this station are not official NWS values.
T = Trace of Precipitation, MM = Missing Value Source: NWS Daily Summary

Daily Weather History Graph

Daily Weather History Graph

Search for Another Location

Airport or City:

Astronomy

Feb. 18, 2013 Rise Set
Actual Time 7:18 AM CST 5:52 PM CST
Civil Twilight 6:48 AM CST 6:23 PM CST
Nautical Twilight 6:13 AM CST 6:58 PM CST
Astronomical Twilight 5:39 AM CST 7:32 PM CST
Moon 11:30 AM CST (2/18) 2:08 AM CST (2/18)
Length of Visible Light 11h 35m
Length of Day
10h 34m
First Quarter, 58% of the Moon is Illuminated
Feb 18
First Quarter
Feb 25
Full
Mar 4
Last Quarter
Mar 11
New
Mar 19
First Quarter

Hourly Weather History & Observations

Time (CST) Temp. Windchill Dew Point Humidity Pressure Visibility Wind Dir Wind Speed Gust Speed Precip Events Conditions
12:53 AM 23.0 °F 13.9 °F 19.9 °F 88% 29.56 in 9.0 mi SE 8.1 mph - N/A   Scattered Clouds
1:00 AM 24.8 °F 17.9 °F 19.4 °F 80% 29.49 in 9.0 mi SE 5.8 mph - N/A   Mostly Cloudy
1:53 AM 24.1 °F 19.7 °F 19.9 °F 84% 29.55 in 9.0 mi SE 3.5 mph - N/A   Overcast
2:29 AM 24.8 °F - 19.4 °F 80% 29.49 in 8.0 mi Calm Calm - N/A   Overcast
2:53 AM 24.1 °F 19.7 °F 21.0 °F 88% 29.55 in 8.0 mi ESE 3.5 mph - N/A   Overcast
3:42 AM 24.8 °F - 21.2 °F 86% 29.47 in 8.0 mi Calm Calm - N/A   Overcast
3:53 AM 23.0 °F 18.4 °F 19.9 °F 88% 29.54 in 8.0 mi South 3.5 mph - N/A   Mostly Cloudy
4:24 AM 26.6 °F 17.5 °F 23.0 °F 86% 29.48 in 8.0 mi SW 9.2 mph - N/A   Overcast
4:53 AM 27.0 °F 18.0 °F 24.1 °F 89% 29.55 in 6.0 mi SW 9.2 mph - N/A   Overcast
5:35 AM 28.4 °F 21.2 °F 26.6 °F 93% 29.50 in 2.5 mi West 6.9 mph - N/A   Overcast
5:53 AM 28.9 °F 21.9 °F 28.0 °F 96% 29.55 in 2.5 mi West 6.9 mph - 0.00 in Snow Light Snow
6:11 AM 30.2 °F 21.3 °F 28.4 °F 93% 29.49 in 3.0 mi WNW 10.4 mph - 0.00 in   Overcast
6:53 AM 30.0 °F 20.0 °F 28.9 °F 96% 29.55 in 4.0 mi WNW 12.7 mph - 0.00 in   Overcast
7:27 AM 24.8 °F 10.0 °F 21.2 °F 86% 29.52 in 5.0 mi NW 21.9 mph 28.8 mph N/A   Overcast
7:53 AM 23.0 °F 6.6 °F 19.0 °F 85% 29.60 in 9.0 mi NW 25.3 mph 32.2 mph N/A   Overcast
8:09 AM 21.2 °F 3.9 °F 17.6 °F 86% 29.54 in 10.0 mi NW 26.5 mph 33.4 mph N/A   Overcast
8:53 AM 19.0 °F 3.2 °F 15.1 °F 85% 29.64 in 10.0 mi NW 19.6 mph 25.3 mph N/A   Overcast
9:53 AM 16.0 °F -1.3 °F 10.9 °F 81% 29.68 in 10.0 mi NW 20.7 mph 26.5 mph N/A   Overcast
10:35 AM 14.0 °F -3.0 °F 8.6 °F 79% 29.64 in 6.0 mi NW 18.4 mph 27.6 mph N/A   Haze
10:53 AM 14.0 °F -5.1 °F 8.1 °F 77% 29.71 in 6.0 mi NW 24.2 mph 31.1 mph 0.00 in   Haze
11:53 AM 12.9 °F -4.9 °F 6.1 °F 74% 29.74 in 10.0 mi NW 19.6 mph 33.4 mph N/A   Overcast
12:53 PM 12.0 °F -6.5 °F 5.0 °F 73% 29.75 in 9.0 mi NW 20.7 mph 28.8 mph N/A   Overcast
1:53 PM 10.9 °F -9.6 °F 1.9 °F 67% 29.77 in 10.0 mi NW 25.3 mph 33.4 mph N/A   Overcast
2:26 PM 10.4 °F -10.3 °F 1.4 °F 67% 29.70 in 10.0 mi NW 25.3 mph 32.2 mph N/A   Mostly Cloudy
2:53 PM 9.0 °F -11.8 °F -0.0 °F 67% 29.80 in 10.0 mi NW 24.2 mph 35.7 mph N/A   Mostly Cloudy
3:08 PM 8.6 °F -12.7 °F -0.4 °F 67% 29.72 in 10.0 mi NNW 25.3 mph 34.5 mph N/A   Scattered Clouds
3:36 PM 6.8 °F -15.9 °F -2.2 °F 67% 29.74 in 10.0 mi NW 27.6 mph 34.5 mph N/A   Mostly Cloudy
3:50 PM 6.8 °F -14.7 °F -2.2 °F 67% 29.75 in 10.0 mi NNW 24.2 mph 33.4 mph N/A   Scattered Clouds
3:53 PM 7.0 °F -13.6 °F -2.9 °F 64% 29.83 in 10.0 mi NNW 21.9 mph 33.4 mph N/A   Scattered Clouds
4:36 PM 3.2 °F -16.5 °F -4.0 °F 72% 29.77 in 9.0 mi NNW 17.3 mph 31.1 mph N/A   Mostly Cloudy
4:53 PM 3.9 °F -18.5 °F -4.0 °F 70% 29.86 in 10.0 mi NNW 24.2 mph 31.1 mph N/A   Mostly Cloudy
5:53 PM 1.9 °F -19.8 °F -6.0 °F 69% 29.90 in 10.0 mi NW 20.7 mph 33.4 mph N/A   Mostly Cloudy
6:53 PM 1.0 °F -19.3 °F -6.0 °F 72% 29.93 in 7.0 mi NNW 17.3 mph 29.9 mph N/A   Overcast
7:53 PM 1.0 °F -21.9 °F -6.0 °F 72% 29.94 in 2.5 mi NNW 23.0 mph 31.1 mph 0.00 in Snow Light Snow
8:53 PM -0.0 °F -22.9 °F -6.0 °F 76% 29.96 in 4.0 mi NW 21.9 mph 27.6 mph 0.00 in   Haze
9:49 PM -0.4 °F -22.3 °F -7.6 °F 72% 29.89 in 7.0 mi NW 19.6 mph 28.8 mph N/A   Mostly Cloudy
9:53 PM -0.9 °F -23.5 °F -8.0 °F 72% 29.99 in 7.0 mi NW 20.7 mph 28.8 mph N/A   Mostly Cloudy
10:02 PM -2.2 °F -25.2 °F -7.6 °F 78% 29.89 in 8.0 mi NW 20.7 mph 27.6 mph N/A   Scattered Clouds
10:40 PM -2.2 °F -25.7 °F -9.4 °F 71% 29.90 in 8.0 mi NNW 21.9 mph 29.9 mph N/A   Mostly Cloudy
10:53 PM -2.0 °F -25.5 °F -8.0 °F 76% 30.01 in 8.0 mi NNW 21.9 mph 29.9 mph N/A   Mostly Cloudy
11:53 PM -0.9 °F -24.1 °F -8.0 °F 72% 30.03 in 8.0 mi NNW 21.9 mph 31.1 mph N/A   Overcast